SCP
0 0 0 0 0 0 0 0 0 0 0 0 0 0 0 0 0 -0 -0 0 0 0 -0 -0 -0 -0 -0 -0 -0 -0 0 0 0 0 0 0 0 0 0 0 0 0 0
0 0 0 0 0 0 0 0 0 0 0 0 0 0 0 0 0 0 -0 -0 0 0 0 0 0 0 0 -0 -0 0 0 0 0 0 0 0 0 0 0 0 0 0 0
0 0 0 0 0 0 0 0 0 0 0 0 0 0 0 0 0 0 0 0 0 0 0 0 0 0 0 0 0 0 0 0 0 0 0 0 0 0 0 0 0 0 0
0 0 0 0 0 0 0 0 0 0 0 0 0 0 0 0 0 0 0 0 0 0 0 0 0 0 0 0 0 0 0 0 0 0 0 0 0 0 0 0 0 0 0
0 0 0 0 0 0 0 0 0 0 0 0 0 0 0 0 0 0 0 0 0 0 0 0 0 0 0 0 0 0 0 0 0 0 0 0 0 0 0 0 0 0 0
0 0 0 0 0 0 0 0 0 0 0 0 0 0 0 0 0 0 0 0 0 0 0 0 0 0 0 0 0 0 0 0 0 0 0 0 0 0 0 0 0 0 0
0 0 0 0 0 0 0 0 0 0 0 0 0 0 0 0 0 0 0 0 0 0 0 0 0 0 0 0 0 0 0 0 0 0 0 0 0 0 0 0 0 0 0
0 0 0 0 0 0 0 0 0 0 0 0 0 0 0 0 0 0 0 0 0 0 0 0 0 0 0 0 0 0 0 0 0 0 0 0 0 0 0 0 0 0 0
0 0 0 0 0 0 0 0 0 0 0 0 0 0 0 0 0 0 0 0 0 0 0 0 0 0 0 0 0 0 0 0 0 0 0 0 0 0 0 0 0 0 0
0 0 0 0 0 0 0 0 0 0 0 0 0 0 0 0 0 0 0 0 0 0 0 0 0 0 0 0 0 0 0 0 0 0 0 0 0 0 0 0 0 0 0
0 0 0 0 0 0 0 0 0 0 0 0 0 0 0 0 0 0 0 0 0 0 0 0 0 0 0 0 0 0 0 0 0 0 0 0 0 0 0 0 0 0 0
0 0 0 0 0 0 0 0 0 0 0 0 0 0 0 0 0 0 0 0 0 0 0 0 0 0 0 0 0 0 0 0 0 0 0 0 0 0 0 0 0 0 0
0 0 0 0 0 0 0 0 0 0 0 0 0 0 0 0 0 0 0 0 0 0 0 0 0 0 0 0 0 0 0 0 0 0 0 0 0 0 0 0 0 0 0
0 0 0 0 0 0 0 0 0 0 0 0 0 0 0 0 0 0 0 0 0 0 0 0 0 0 0 0 0 0 0 0 0 0 0 0 0 0 0 0 0 0 0
0 0 0 0 0 0 0 0 0 0 0 0 0 0 0 0 0 0 0 0 0 0 0 0 0 0 0 0 0 0 0 0 0 0 0 0 0 0 0 0 0 0 0
0 0 0 0 0 0 0 0 0 0 0 0 0 0 0 0 0 0 0 0 0 0 0 0 0 0 0 0 0 0 0 0 0 0 0 0 0 0 0 0 0 0 0
0 0 0 0 0 0 0 0 0 0 0 0 0 0 0 0 0 0 0 0 0 0 0 0 0 0 0 0 0 0 0 0 0 0 0 0 0 0 0 0 0 0 0
0 0 0 0 0 0 0 0 0 0 0 0 0 0 0 0 0 0 0 0 0 0 0 0 0 0 0 0 0 0 0 0 0 0 0 0 0 0 0 0 0 0 0
0 0 0 0 0 0 0 0 0 0 0 0 0 0 0 0 0 0 0 0 0 0 0 0 0 0 0 0 0 0 0 0 0 0 0 0 0 0 0 0 0 0 0
0 0 0 0 0 0 0 0 0 0 0 0 0 0 0 0 0 0 0 0 0 0 0 0 0 0 0 0 0 0 0 0 0 0 0 0 0 0 0 0 0 0 0
0 0 0 0 0 0 0 0 0 0 0 0 0 0 0 0 0 0 0 0 0 0 0 0 0 0 0 0 0 0 0 0 0 0 0 0 0 0 0 0 0 0 0
0 0 0 0 0 0 0 0 0 0 0 0 0 0 0 0 0 0 0 0 0 0 0 0 0 0 -0 0 0 0 0 0 0 0 0 0 0 0 0 0 0 0 0
0 0 0 0 0 0 0 0 0 0 0 0 0 0 0 0 0 0 0 0 0 0 0 0 0 0 0 0 0 0 0 0 0 0 0 0 0 0 0 0 0 0 0
0 0 0 0 0 0 0 0 0 0 0 0 0 0 0 0 0 0 0 0 0 0 0 0 0 0 0 0 0 0 0 0 0 0 0 0 0 0 0 0 0 0 0
0 0 0 0 0 0 0 0 0 0 0 0 0 0 0 0 0 0 0 0 0 0 0 -0 -0 -0 -0 0 0 0 0 0 0 0 0 0 0 0 0 0 0 0 0
0 0 0 0 0 0 0 0 0 0 0 0 0 0 0 0 0 0 0 0 0 0 0 -0 -0 0 0 0 0 0 0 0 0 0 0 0 0 0 0 0 0 0 0
Wind_Speed_500mb
12 7 8 7 7 11 10 7 4 3 3 1 6 8 11 16 20 23 27 30 33 35 35 32 34 37 36 32 31 32 30 23 16 11 16 22 25 16 16 23 27 27 26
13 10 12 13 11 11 8 6 4 4 6 3 7 5 7 11 15 19 23 26 25 32 35 32 33 33 43 42 43 40 42 42 30 22 18 18 19 18 18 20 24 27 28
17 13 17 17 11 11 10 6 4 2 8 10 13 10 7 9 12 14 16 18 19 25 29 31 30 30 30 35 39 42 47 51 44 35 27 21 20 21 19 20 22 22 24
18 21 21 19 12 13 14 6 3 1 4 12 15 17 15 11 9 9 9 12 13 17 23 26 22 23 25 29 34 38 47 52 47 45 44 30 23 21 21 20 19 18 19
24 25 22 20 14 17 16 11 7 7 8 16 20 21 19 16 13 10 5 6 8 11 12 12 14 17 17 22 29 33 39 44 49 48 48 36 24 22 22 23 22 22 22
30 27 26 22 18 21 20 18 14 8 8 13 24 26 23 20 18 13 8 5 6 7 2 2 6 9 13 19 24 34 40 41 49 56 52 43 34 26 22 23 24 24 25
39 30 26 25 25 27 24 22 17 8 9 14 21 31 28 21 17 14 8 5 6 7 7 5 1 6 14 20 27 33 34 40 44 44 42 43 40 35 30 29 28 28 26
46 36 29 31 31 32 29 26 20 14 15 19 25 26 20 15 11 6 6 7 9 9 11 8 5 3 13 21 27 28 37 43 46 44 45 43 36 33 32 33 33 31 30
49 39 31 33 34 35 32 30 24 19 19 25 27 17 14 14 19 6 4 5 9 14 17 14 8 2 13 22 29 33 40 46 52 54 53 44 35 31 31 33 36 35 36
50 42 36 35 36 38 38 34 28 23 21 19 26 34 28 19 18 13 15 16 15 16 18 14 7 6 15 21 24 31 37 47 54 56 50 39 35 33 31 33 37 36 37
52 43 35 33 41 42 42 38 33 26 22 19 19 23 22 18 21 17 29 26 21 19 16 12 7 11 14 19 24 30 39 49 52 51 40 36 38 39 37 34 32 36 36
57 46 30 35 46 49 47 43 37 31 25 19 17 17 15 16 16 16 27 31 21 19 14 8 5 7 7 12 20 29 39 47 48 37 32 35 39 40 40 39 40 42 43
64 30 36 46 51 54 50 46 40 34 29 23 19 16 16 16 14 13 14 32 29 22 12 6 4 5 11 15 23 32 38 45 36 31 30 33 36 39 41 39 43 44 41
65 23 41 56 56 61 55 49 43 38 33 26 23 17 13 12 13 12 13 21 28 22 18 14 7 9 12 19 26 32 37 28 26 28 31 31 35 37 38 43 45 45 41
73 57 61 58 64 68 60 54 48 42 35 29 25 17 12 12 12 13 15 17 20 22 21 14 11 12 14 20 30 33 27 26 24 26 31 33 33 34 38 40 40 41 45
77 45 61 63 67 72 64 58 51 46 38 33 27 19 16 11 11 13 14 16 17 16 18 16 11 8 11 22 26 21 21 20 22 28 32 31 31 34 37 39 42 45 47
78 59 64 62 72 76 68 62 58 50 45 37 31 22 18 14 11 12 12 13 12 14 17 16 9 4 9 13 14 17 21 17 18 26 31 31 31 33 37 39 38 43 47
74 56 67 68 75 79 72 67 63 56 49 43 36 28 21 16 15 12 10 10 11 12 12 13 8 3 1 8 15 19 19 13 20 27 30 34 38 38 35 35 39 42 45
75 66 74 77 82 81 74 68 65 58 50 46 39 29 22 16 15 14 17 14 14 15 16 14 10 9 7 7 13 15 12 10 18 26 32 36 36 37 37 33 38 42 47
81 81 78 83 84 79 73 69 68 59 56 53 41 34 25 19 16 19 19 19 19 18 17 13 16 12 7 8 13 16 15 13 20 27 30 31 33 37 34 34 34 37 43
88 80 78 83 82 81 77 74 70 67 66 62 49 43 33 23 19 20 18 24 22 21 18 15 18 14 8 8 15 17 18 23 27 35 36 39 39 41 39 32 35 37 46
88 81 83 83 86 87 81 74 75 77 75 70 61 53 39 27 25 24 27 25 21 19 19 24 21 16 10 9 9 14 21 31 35 33 37 43 42 42 47 38 37 40 45
85 82 84 82 84 88 85 80 80 85 84 77 69 47 39 35 32 30 33 29 27 22 23 23 21 16 10 6 7 12 23 31 30 27 39 46 47 43 46 44 40 34 43
80 56 83 83 81 88 87 85 91 91 87 80 66 48 43 38 39 35 38 36 31 28 30 23 17 17 11 5 4 14 22 29 34 29 44 49 56 58 47 47 40 34 38
84 78 95 99 86 87 88 92 95 88 87 79 59 50 49 46 41 41 43 39 37 35 27 24 17 17 11 5 3 11 19 26 35 30 43 48 55 64 46 45 43 42 47
90 82 105 94 83 83 88 91 95 93 83 59 49 57 52 51 45 42 44 40 41 35 31 25 17 17 12 7 1 7 18 25 30 31 41 48 53 56 38 44 45 43 48
Wind_Direction_500mb
199 224 242 259 302 314 316 298 302 269 268 335 106 83 69 57 51 46 53 45 40 38 41 49 47 39 38 37 37 32 28 24 24 356 317 315 305 311 318 314 313 312 298
213 252 281 285 289 300 270 246 256 281 250 213 162 136 95 77 69 55 52 48 41 33 33 41 39 45 37 36 29 30 28 24 17 5 357 354 352 335 330 322 315 306 296
236 259 280 278 274 263 234 237 252 251 225 209 193 179 141 95 87 91 68 53 47 35 30 33 35 39 41 34 29 20 21 21 19 16 6 355 349 339 331 315 297 308 290
243 257 274 268 258 222 220 230 260 273 221 214 205 183 162 153 142 120 84 69 60 42 39 33 33 35 43 46 41 31 21 17 20 16 10 356 340 338 339 333 330 329 315
248 251 272 261 238 205 212 213 201 211 217 208 199 180 172 172 171 170 161 114 82 68 66 47 18 12 29 45 45 38 30 20 14 12 13 11 356 334 331 327 323 319 316
241 256 265 241 228 211 209 204 195 203 225 206 191 183 184 182 185 192 196 163 129 130 136 315 355 359 29 23 23 16 18 19 12 7 9 11 9 359 342 328 321 319 314
238 253 249 239 226 215 209 201 196 208 174 159 169 168 172 180 200 207 208 219 209 193 211 233 40 1 7 14 9 15 25 16 14 11 6 6 1 359 352 336 325 322 316
236 242 245 229 224 216 207 201 198 195 182 174 172 168 156 152 172 156 162 185 180 193 203 173 154 324 357 1 12 14 6 5 2 360 356 353 355 354 349 346 345 334 323
238 240 238 223 220 212 213 207 201 195 198 199 193 200 181 200 176 132 170 166 170 173 165 165 184 295 338 349 352 357 354 355 352 349 349 349 350 350 348 349 346 341 341
241 236 230 219 224 216 212 213 206 201 196 203 209 223 243 227 184 155 134 145 162 165 164 171 182 331 342 339 343 343 345 345 345 347 350 357 1 357 347 344 350 351 344
234 232 228 223 228 219 213 213 211 206 202 205 211 220 225 224 214 183 147 146 155 147 158 171 211 281 294 306 323 333 339 339 342 343 349 353 354 354 348 348 348 344 339
229 232 256 228 233 223 216 214 210 208 206 206 212 229 242 239 225 209 179 163 163 147 155 164 224 260 298 318 325 331 337 337 337 342 345 346 347 350 352 346 343 340 333
223 226 228 224 227 223 219 215 212 208 207 205 211 215 235 253 254 225 197 183 181 178 167 193 240 292 310 313 322 332 335 334 339 340 342 343 344 345 349 347 344 342 339
228 232 258 234 227 222 221 217 213 209 208 207 207 204 217 225 229 232 222 205 187 186 182 219 249 288 303 318 329 331 337 353 354 341 341 341 344 344 341 337 338 338 335
236 238 228 220 217 220 222 219 215 213 210 210 206 206 213 220 231 229 218 218 220 199 201 201 229 275 301 320 333 341 358 8 353 340 343 341 336 338 340 338 337 337 335
235 230 212 217 214 218 220 219 215 212 212 211 208 212 216 222 228 225 221 210 215 224 211 213 222 236 311 335 346 356 1 356 342 340 341 337 333 333 340 342 341 340 339
232 220 214 215 212 217 219 219 217 216 213 212 209 215 217 217 222 203 211 208 210 214 205 180 177 256 325 355 3 354 352 350 357 351 351 346 343 339 339 341 343 344 343
232 229 222 218 215 217 218 218 217 216 216 213 212 209 213 214 192 189 197 201 185 172 181 174 187 237 44 26 1 347 346 10 9 12 16 11 8 3 353 354 352 354 352
229 229 226 219 216 216 217 217 220 220 218 216 209 203 208 213 198 200 182 190 197 180 169 172 164 155 111 19 349 351 35 55 28 25 22 20 12 4 4 360 359 358 356
228 228 227 222 218 217 219 219 217 216 215 208 201 202 206 197 203 199 183 189 185 175 161 153 147 140 96 19 9 56 49 31 17 18 15 11 8 7 352 350 351 353 352
227 226 228 222 219 218 219 217 218 216 212 203 196 197 193 177 187 191 194 190 178 177 170 162 159 139 117 68 73 52 30 19 13 9 6 7 2 4 359 350 351 344 341
226 223 225 223 219 219 220 219 220 215 210 201 195 196 190 170 191 189 187 188 186 186 173 160 153 150 133 111 66 32 24 13 13 359 353 358 3 3 5 360 348 348 348
223 226 226 220 221 223 222 220 221 218 209 199 196 193 177 170 191 189 185 187 182 177 157 156 157 155 142 127 54 27 24 14 10 354 352 2 3 357 355 356 352 344 351
219 225 236 224 222 223 225 223 223 217 203 197 196 191 177 182 192 187 186 184 178 166 159 161 158 156 158 136 48 28 20 19 15 360 1 359 360 355 360 5 4 356 347
202 209 222 222 219 221 220 224 224 208 199 195 187 179 176 183 190 187 185 184 170 163 163 167 163 159 171 145 77 26 10 7 4 3 1 356 356 352 353 0 2 358 355
203 215 212 215 218 220 220 221 216 202 189 184 180 179 174 186 191 188 186 182 169 164 166 170 166 175 187 195 332 9 358 7 358 355 353 350 354 355 347 350 359 359 356
Wind_Speed_850mb
12 7 8 7 7 11 10 7 4 3 3 1 6 8 11 16 20 23 27 30 33 35 35 32 34 37 36 32 31 32 30 23 16 11 16 22 25 16 16 23 27 27 26
13 10 12 13 11 11 8 6 4 4 6 3 7 5 7 11 15 19 23 26 25 32 35 32 33 33 43 42 43 40 42 42 30 22 18 18 19 18 18 20 24 27 28
17 13 17 17 11 11 10 6 4 2 8 10 13 10 7 9 12 14 16 18 19 25 29 31 30 30 30 35 39 42 47 51 44 35 27 21 20 21 19 20 22 22 24
18 21 21 19 12 13 14 6 3 1 4 12 15 17 15 11 9 9 9 12 13 17 23 26 22 23 25 29 34 38 47 52 47 45 44 30 23 21 21 20 19 18 19
24 25 22 20 14 17 16 11 7 7 8 16 20 21 19 16 13 10 5 6 8 11 12 12 14 17 17 22 29 33 39 44 49 48 48 36 24 22 22 23 22 22 22
30 27 26 22 18 21 20 18 14 8 8 13 24 26 23 20 18 13 8 5 6 7 2 2 6 9 13 19 24 34 40 41 49 56 52 43 34 26 22 23 24 24 25
39 30 26 25 25 27 24 22 17 8 9 14 21 31 28 21 17 14 8 5 6 7 7 5 1 6 14 20 27 33 34 40 44 44 42 43 40 35 30 29 28 28 26
46 36 29 31 31 32 29 26 20 14 15 19 25 26 20 15 11 6 6 7 9 9 11 8 5 3 13 21 27 28 37 43 46 44 45 43 36 33 32 33 33 31 30
49 39 31 33 34 35 32 30 24 19 19 25 27 17 14 14 19 6 4 5 9 14 17 14 8 2 13 22 29 33 40 46 52 54 53 44 35 31 31 33 36 35 36
50 42 36 35 36 38 38 34 28 23 21 19 26 34 28 19 18 13 15 16 15 16 18 14 7 6 15 21 24 31 37 47 54 56 50 39 35 33 31 33 37 36 37
52 43 35 33 41 42 42 38 33 26 22 19 19 23 22 18 21 17 29 26 21 19 16 12 7 11 14 19 24 30 39 49 52 51 40 36 38 39 37 34 32 36 36
57 46 30 35 46 49 47 43 37 31 25 19 17 17 15 16 16 16 27 31 21 19 14 8 5 7 7 12 20 29 39 47 48 37 32 35 39 40 40 39 40 42 43
64 30 36 46 51 54 50 46 40 34 29 23 19 16 16 16 14 13 14 32 29 22 12 6 4 5 11 15 23 32 38 45 36 31 30 33 36 39 41 39 43 44 41
65 23 41 56 56 61 55 49 43 38 33 26 23 17 13 12 13 12 13 21 28 22 18 14 7 9 12 19 26 32 37 28 26 28 31 31 35 37 38 43 45 45 41
73 57 61 58 64 68 60 54 48 42 35 29 25 17 12 12 12 13 15 17 20 22 21 14 11 12 14 20 30 33 27 26 24 26 31 33 33 34 38 40 40 41 45
77 45 61 63 67 72 64 58 51 46 38 33 27 19 16 11 11 13 14 16 17 16 18 16 11 8 11 22 26 21 21 20 22 28 32 31 31 34 37 39 42 45 47
78 59 64 62 72 76 68 62 58 50 45 37 31 22 18 14 11 12 12 13 12 14 17 16 9 4 9 13 14 17 21 17 18 26 31 31 31 33 37 39 38 43 47
74 56 67 68 75 79 72 67 63 56 49 43 36 28 21 16 15 12 10 10 11 12 12 13 8 3 1 8 15 19 19 13 20 27 30 34 38 38 35 35 39 42 45
75 66 74 77 82 81 74 68 65 58 50 46 39 29 22 16 15 14 17 14 14 15 16 14 10 9 7 7 13 15 12 10 18 26 32 36 36 37 37 33 38 42 47
81 81 78 83 84 79 73 69 68 59 56 53 41 34 25 19 16 19 19 19 19 18 17 13 16 12 7 8 13 16 15 13 20 27 30 31 33 37 34 34 34 37 43
88 80 78 83 82 81 77 74 70 67 66 62 49 43 33 23 19 20 18 24 22 21 18 15 18 14 8 8 15 17 18 23 27 35 36 39 39 41 39 32 35 37 46
88 81 83 83 86 87 81 74 75 77 75 70 61 53 39 27 25 24 27 25 21 19 19 24 21 16 10 9 9 14 21 31 35 33 37 43 42 42 47 38 37 40 45
85 82 84 82 84 88 85 80 80 85 84 77 69 47 39 35 32 30 33 29 27 22 23 23 21 16 10 6 7 12 23 31 30 27 39 46 47 43 46 44 40 34 43
80 56 83 83 81 88 87 85 91 91 87 80 66 48 43 38 39 35 38 36 31 28 30 23 17 17 11 5 4 14 22 29 34 29 44 49 56 58 47 47 40 34 38
84 78 95 99 86 87 88 92 95 88 87 79 59 50 49 46 41 41 43 39 37 35 27 24 17 17 11 5 3 11 19 26 35 30 43 48 55 64 46 45 43 42 47
90 82 105 94 83 83 88 91 95 93 83 59 49 57 52 51 45 42 44 40 41 35 31 25 17 17 12 7 1 7 18 25 30 31 41 48 53 56 38 44 45 43 48
Wind_Direction_850mb
199 224 242 259 302 314 316 298 302 269 268 335 106 83 69 57 51 46 53 45 40 38 41 49 47 39 38 37 37 32 28 24 24 356 317 315 305 311 318 314 313 312 298
213 252 281 285 289 300 270 246 256 281 250 213 162 136 95 77 69 55 52 48 41 33 33 41 39 45 37 36 29 30 28 24 17 5 357 354 352 335 330 322 315 306 296
236 259 280 278 274 263 234 237 252 251 225 209 193 179 141 95 87 91 68 53 47 35 30 33 35 39 41 34 29 20 21 21 19 16 6 355 349 339 331 315 297 308 290
243 257 274 268 258 222 220 230 260 273 221 214 205 183 162 153 142 120 84 69 60 42 39 33 33 35 43 46 41 31 21 17 20 16 10 356 340 338 339 333 330 329 315
248 251 272 261 238 205 212 213 201 211 217 208 199 180 172 172 171 170 161 114 82 68 66 47 18 12 29 45 45 38 30 20 14 12 13 11 356 334 331 327 323 319 316
241 256 265 241 228 211 209 204 195 203 225 206 191 183 184 182 185 192 196 163 129 130 136 315 355 359 29 23 23 16 18 19 12 7 9 11 9 359 342 328 321 319 314
238 253 249 239 226 215 209 201 196 208 174 159 169 168 172 180 200 207 208 219 209 193 211 233 40 1 7 14 9 15 25 16 14 11 6 6 1 359 352 336 325 322 316
236 242 245 229 224 216 207 201 198 195 182 174 172 168 156 152 172 156 162 185 180 193 203 173 154 324 357 1 12 14 6 5 2 360 356 353 355 354 349 346 345 334 323
238 240 238 223 220 212 213 207 201 195 198 199 193 200 181 200 176 132 170 166 170 173 165 165 184 295 338 349 352 357 354 355 352 349 349 349 350 350 348 349 346 341 341
241 236 230 219 224 216 212 213 206 201 196 203 209 223 243 227 184 155 134 145 162 165 164 171 182 331 342 339 343 343 345 345 345 347 350 357 1 357 347 344 350 351 344
234 232 228 223 228 219 213 213 211 206 202 205 211 220 225 224 214 183 147 146 155 147 158 171 211 281 294 306 323 333 339 339 342 343 349 353 354 354 348 348 348 344 339
229 232 256 228 233 223 216 214 210 208 206 206 212 229 242 239 225 209 179 163 163 147 155 164 224 260 298 318 325 331 337 337 337 342 345 346 347 350 352 346 343 340 333
223 226 228 224 227 223 219 215 212 208 207 205 211 215 235 253 254 225 197 183 181 178 167 193 240 292 310 313 322 332 335 334 339 340 342 343 344 345 349 347 344 342 339
228 232 258 234 227 222 221 217 213 209 208 207 207 204 217 225 229 232 222 205 187 186 182 219 249 288 303 318 329 331 337 353 354 341 341 341 344 344 341 337 338 338 335
236 238 228 220 217 220 222 219 215 213 210 210 206 206 213 220 231 229 218 218 220 199 201 201 229 275 301 320 333 341 358 8 353 340 343 341 336 338 340 338 337 337 335
235 230 212 217 214 218 220 219 215 212 212 211 208 212 216 222 228 225 221 210 215 224 211 213 222 236 311 335 346 356 1 356 342 340 341 337 333 333 340 342 341 340 339
232 220 214 215 212 217 219 219 217 216 213 212 209 215 217 217 222 203 211 208 210 214 205 180 177 256 325 355 3 354 352 350 357 351 351 346 343 339 339 341 343 344 343
232 229 222 218 215 217 218 218 217 216 216 213 212 209 213 214 192 189 197 201 185 172 181 174 187 237 44 26 1 347 346 10 9 12 16 11 8 3 353 354 352 354 352
229 229 226 219 216 216 217 217 220 220 218 216 209 203 208 213 198 200 182 190 197 180 169 172 164 155 111 19 349 351 35 55 28 25 22 20 12 4 4 360 359 358 356
228 228 227 222 218 217 219 219 217 216 215 208 201 202 206 197 203 199 183 189 185 175 161 153 147 140 96 19 9 56 49 31 17 18 15 11 8 7 352 350 351 353 352
227 226 228 222 219 218 219 217 218 216 212 203 196 197 193 177 187 191 194 190 178 177 170 162 159 139 117 68 73 52 30 19 13 9 6 7 2 4 359 350 351 344 341
226 223 225 223 219 219 220 219 220 215 210 201 195 196 190 170 191 189 187 188 186 186 173 160 153 150 133 111 66 32 24 13 13 359 353 358 3 3 5 360 348 348 348
223 226 226 220 221 223 222 220 221 218 209 199 196 193 177 170 191 189 185 187 182 177 157 156 157 155 142 127 54 27 24 14 10 354 352 2 3 357 355 356 352 344 351
219 225 236 224 222 223 225 223 223 217 203 197 196 191 177 182 192 187 186 184 178 166 159 161 158 156 158 136 48 28 20 19 15 360 1 359 360 355 360 5 4 356 347
202 209 222 222 219 221 220 224 224 208 199 195 187 179 176 183 190 187 185 184 170 163 163 167 163 159 171 145 77 26 10 7 4 3 1 356 356 352 353 0 2 358 355
203 215 212 215 218 220 220 221 216 202 189 184 180 179 174 186 191 188 186 182 169 164 166 170 166 175 187 195 332 9 358 7 358 355 353 350 354 355 347 350 359 359 356